Wetterdaten am Flugplatz MSG Übersee

alte Datensätze gelöscht
117 aktuelle Wetterdateneinträge gefunden

Datum/Uhrzeit   Windrichtung/Grad    Geschw./kmh    Temp./C°    Luftdruck/mbar    Spannung/Volt   
2026-09-05 00:04 W/262 6 26 1020 12,27
2026-09-05 00:14 W/274 3 26 1020 12,29
2026-09-05 00:24 W/291 5 26 1020 12,32
2026-09-05 00:34 W/285 4 25 1020 12,35
2026-09-05 00:44 W/267 4 25 1020 11,86
2026-09-05 00:54 W/263 6 25 1020 12,13
2026-09-05 01:05 W/264 6 25 1020 12,17
2026-09-05 01:15 W/258 9 25 1020 12,20
2026-09-05 01:25 W/258 9 25 1020 12,23
2026-09-05 01:35 W/263 10 25 1020 12,24
2026-09-05 01:45 W/256 12 25 1020 12,27
2026-09-05 01:55 W/261 9 25 1020 12,29
2026-09-05 02:05 W/260 6 25 1020 12,30
2026-09-05 02:15 W/275 6 26 1020 11,91
2026-09-05 02:25 W/270 6 26 1020 12,11
2026-09-05 02:35 W/265 6 26 1020 12,14
2026-09-05 02:45 W/277 9 26 1020 12,17
2026-09-05 02:55 W/269 6 26 1020 12,20
2026-09-05 03:05 W/289 6 25 1020 12,21
2026-09-05 03:15 W/277 6 25 1020 12,24
2026-09-05 03:26 W/271 6 25 1020 12,26
2026-09-05 03:36 NW/295 6 25 1020 12,27
2026-09-05 03:46 NW/327 13 25 1020 12,30
2026-09-05 03:56 NW/326 16 25 1021 11,89
2026-09-05 04:06 NW/322 15 25 1020 12,05
2026-09-05 04:16 NW/317 12 25 1021 12,10
2026-09-05 04:26 NW/316 9 25 1021 12,13
2026-09-05 04:36 NW/315 11 25 1021 12,16
2026-09-05 04:46 NW/313 13 25 1021 12,17
2026-09-05 04:56 W/274 5 25 1021 12,20
2026-09-05 05:06 W/286 9 25 1022 12,21
2026-09-05 05:16 W/292 12 25 1022 12,23
2026-09-05 05:26 W/265 10 24 1022 11,77
2026-09-05 05:36 W/250 12 24 1022 12,04
2026-09-05 05:46 W/251 6 24 1022 12,08
2026-09-05 05:57 NW/309 13 24 1022 12,11
2026-09-05 06:07 NW/326 18 23 1023 12,16
2026-09-05 06:17 N/350 18 23 1023 12,18
2026-09-05 06:27 N/359 16 23 1023 12,20
2026-09-05 06:37 N/350 20 22 1024 12,20
2026-09-05 06:47 N/8 15 22 1024 11,85
2026-09-05 06:57 NO/28 18 22 1024 12,04
2026-09-05 07:07 NO/36 24 21 1024 12,05
2026-09-05 07:17 N/18 20 21 1025 12,08
2026-09-05 07:27 N/7 19 21 1026 12,11
2026-09-05 07:37 NO/25 24 20 1025 12,14
2026-09-05 07:47 N/22 20 20 1026 12,17
2026-09-05 07:57 N/12 14 20 1026 11,82
2026-09-05 08:07 NO/25 12 20 1026 11,83
2026-09-05 08:17 O/77 6 19 1026 12,02
2026-09-05 08:27 SO/147 9 19 1026 12,07
2026-09-05 08:37 S/160 13 19 1026 12,08
2026-09-05 08:47 SO/155 10 19 1026 12,10
2026-09-05 08:57 SO/156 4 19 1026 12,13
2026-09-05 09:08 SO/157 8 18 1025 12,14
2026-09-05 09:18 SO/149 7 18 1025 11,76
2026-09-05 09:28 S/158 9 18 1025 12,05
2026-09-05 09:38 S/161 4 18 1025 12,14
2026-09-05 09:48 O/91 11 18 1026 12,17
2026-09-05 09:58 O/73 16 18 1026 12,21
2026-09-05 10:08 SO/125 7 18 1026 12,21
2026-09-05 10:18 O/112 4 18 1026 11,92
2026-09-05 10:28 SO/136 4 18 1026 12,14
2026-09-05 10:38 SO/140 3 19 1026 12,21
2026-09-05 10:48 S/159 3 19 1026 12,38
2026-09-05 10:58 S/159 8 19 1026 12,48
2026-09-05 11:08 S/166 10 19 1026 12,57
2026-09-05 11:18 S/169 10 20 1026 12,58
2026-09-05 11:28 S/200 6 20 1026 12,16
2026-09-05 11:38 W/265 2 20 1026 12,40
2026-09-05 11:49 W/279 3 20 1026 12,48
2026-09-05 11:59 W/281 2 20 1026 12,49
2026-09-05 12:09 W/281 5 20 1026 12,51
2026-09-05 12:19 W/280 7 20 1026 12,57
2026-09-05 12:29 W/280 4 20 1026 12,70
2026-09-05 12:39 S/194 7 20 1026 12,32
2026-09-05 12:49 SW/220 2 20 1026 12,52
2026-09-05 12:59 SW/225 1 21 1026 12,54
2026-09-05 13:09 SW/226 1 21 1026 12,55
2026-09-05 13:19 SW/234 4 21 1027 12,57
2026-09-05 13:29 SW/241 6 21 1026 12,58
2026-09-05 13:39 SW/243 6 21 1026 12,60
2026-09-05 13:49 SW/243 6 21 1027 12,26
2026-09-05 14:00 SW/243 7 21 1027 12,45
2026-09-05 14:10 SW/247 8 21 1027 12,48
2026-09-05 14:20 W/281 11 21 1027 12,51
2026-09-05 14:30 W/272 9 21 1027 12,52
2026-09-05 14:40 NW/295 8 21 1027 12,54
2026-09-05 14:50 W/290 7 21 1027 12,57
2026-09-05 15:00 W/272 12 21 1027 12,58
2026-09-05 15:10 W/255 18 21 1027 12,16
2026-09-05 15:20 NW/296 10 21 1027 12,39
2026-09-05 15:30 W/284 11 21 1027 12,42
2026-09-05 15:40 W/271 8 21 1027 12,46
2026-09-05 15:50 NW/296 9 21 1027 12,48
2026-09-05 16:00 NW/299 9 22 1027 12,49
2026-09-05 16:10 W/271 12 22 1026 12,52
2026-09-05 16:20 W/255 15 22 1026 12,54
2026-09-05 16:30 W/268 11 22 1026 12,57
2026-09-05 16:41 W/283 11 22 1026 12,14
2026-09-05 16:51 W/256 17 23 1026 12,35
2026-09-05 17:01 W/279 12 23 1026 12,39
2026-09-05 17:11 W/281 14 23 1026 12,42
2026-09-05 17:21 W/279 12 23 1026 12,45
2026-09-05 17:31 W/278 12 23 1026 12,46
2026-09-05 17:41 W/284 8 24 1026 12,49
2026-09-05 17:51 NW/297 9 24 1026 12,51
2026-09-05 18:01 W/290 7 24 1026 12,10
2026-09-05 18:11 W/284 5 24 1026 12,33
2026-09-05 18:21 W/272 6 24 1026 12,36
2026-09-05 18:31 W/283 12 24 1026 12,38
2026-09-05 18:41 W/289 8 24 1027 12,42
2026-09-05 18:51 W/282 9 24 1026 12,45
2026-09-05 19:01 W/270 6 24 1026 12,45
2026-09-05 19:12 W/272 4 24 1026 12,48
2026-09-05 19:22 NW/303 2 23 1027 12,49
2026-09-05 19:32 NW/310 1 23 1027 12,08